User: anonymous   Login
Location: Unspecified
(0.0000°N, 0.0000°E)
Time: 19:18:28
(UTC+02:00)
Language:

PSLV R/B - Orbit

View from above orbital plane
View from above orbital plane
View from above satellite
View from above satellite

Ground track
Ground track

The orbit data is extracted from the following two-line orbital elements,

1 29713U 07001E   15087.83198428  .00003100  00000-0  37832-3 0  9994
2 29713 097.6711 075.4299 0024301 238.4767 121.4074 14.83820366443683
Epoch (UTC): 28 March 2015 19:58:03
Eccentricity: 0.0024301
inclination: 97.6711°
perigee height: 600 km
apogee height: 634 km
right ascension of ascending node: 75.4299°
argument of perigee: 238.4767°
revolutions per day: 14.83820366
mean anomaly at epoch: 121.4074°
orbit number at epoch: 44368

The dashed part of the orbit path shows where the satellite is in the earth's shadow,  

DLR